| time (UTC) | temp F | wind direction | speed MPH | gust MPH | rain 1hr in | rain 24hr in | rain mn in | humidity % | barometer mb |
| 20260506141218 | 53 | 203 | 5.0 | 8.0 | 0.00 | 0.00 | 0.00 | 43 | 1013.2 |
| 20260506140217 | 52 | 225 | 3.0 | 4.0 | 0.00 | 0.00 | 0.00 | 46 | 1013.2 |
| 20260506135217 | 51 | 203 | 3.0 | 4.0 | 0.00 | 0.00 | 0.00 | 44 | 1013.0 |
| 20260506134218 | 50 | 203 | 5.0 | 6.0 | 0.00 | 0.00 | 0.00 | 48 | 1012.8 |
| 20260506133217 | 50 | 203 | 3.0 | 4.0 | 0.00 | 0.00 | 0.00 | 53 | 1012.6 |
| 20260506132217 | 50 | 203 | 2.0 | 3.0 | 0.00 | 0.00 | 0.00 | 54 | 1012.5 |
| 20260506131217 | 49 | 203 | 2.0 | 3.0 | 0.00 | 0.00 | 0.00 | 60 | 1012.4 |
| 20260506130218 | 47 | 158 | 2.0 | 3.0 | 0.00 | 0.00 | 0.00 | 64 | 1012.4 |
| 20260506125217 | 46 | 203 | 1.0 | 2.0 | 0.00 | 0.00 | 0.00 | 70 | 1012.3 |
| 20260506124217 | 44 | 0.0 | 1.0 | 0.00 | 0.00 | 0.00 | 76 | 1012.2 | |
| 20260506123217 | 43 | 293 | 1.0 | 2.0 | 0.00 | 0.00 | 0.00 | 77 | 1012.0 |
| 20260506122217 | 42 | 338 | 1.0 | 2.0 | 0.00 | 0.00 | 0.00 | 79 | 1011.8 |
| 20260506121217 | 41 | 0.0 | 0.0 | 0.00 | 0.00 | 0.00 | 80 | 1011.5 | |
| 20260506120217 | 40 | 0.0 | 1.0 | 0.00 | 0.00 | 0.00 | 80 | 1011.6 | |
| 20260506115217 | 40 | 0.0 | 1.0 | 0.00 | 0.00 | 0.00 | 80 | 1011.5 | |
| 20260506114217 | 39 | 0.0 | 1.0 | 0.00 | 0.00 | 0.00 | 81 | 1011.4 | |
| 20260506113217 | 38 | 0.0 | 0.0 | 0.00 | 0.00 | 0.00 | 80 | 1011.3 | |
| 20260506112318 | 38 | 0.0 | 1.0 | 0.00 | 0.00 | 0.00 | 79 | 1011.2 | |
| 20260506111217 | 38 | 0.0 | 0.0 | 0.00 | 0.00 | 0.00 | 79 | 1011.2 | |
| 20260506110217 | 39 | 0.0 | 1.0 | 0.00 | 0.00 | 0.00 | 79 | 1011.3 | |
| 20260506105237 | 39 | 0.0 | 1.0 | 0.00 | 0.00 | 0.00 | 79 | 1011.1 | |
| 20260506104217 | 39 | 45 | 1.0 | 2.0 | 0.00 | 0.00 | 0.00 | 78 | 1010.9 |
| 20260506103217 | 39 | 45 | 1.0 | 1.0 | 0.00 | 0.00 | 0.00 | 77 | 1010.7 |
| 20260506102217 | 39 | 0.0 | 1.0 | 0.00 | 0.00 | 0.00 | 75 | 1010.5 | |
| 20260506101217 | 40 | 0.0 | 0.0 | 0.00 | 0.00 | 0.00 | 74 | 1010.4 | |
| 20260506100217 | 40 | 0.0 | 0.0 | 0.00 | 0.00 | 0.00 | 75 | 1010.4 | |
| 20260506095258 | 40 | 0.0 | 0.0 | 0.00 | 0.00 | 0.00 | 74 | 1010.5 | |
| 20260506094217 | 40 | 0.0 | 0.0 | 0.00 | 0.00 | 0.00 | 73 | 1010.4 | |
| 20260506093217 | 40 | 0.0 | 0.0 | 0.00 | 0.00 | 0.00 | 72 | 1010.4 | |
| 20260506092237 | 40 | 0.0 | 1.0 | 0.00 | 0.00 | 0.00 | 71 | 1010.4 | |
| 20260506091217 | 40 | 45 | 1.0 | 1.0 | 0.00 | 0.00 | 0.00 | 71 | 1010.3 |
| 20260506090257 | 40 | 0.0 | 0.0 | 0.00 | 0.00 | 0.00 | 70 | 1010.5 | |
| 20260506085217 | 40 | 0.0 | 0.0 | 0.00 | 0.00 | 0.00 | 68 | 1010.5 | |
| 20260506084217 | 40 | 0.0 | 1.0 | 0.00 | 0.00 | 0.00 | 66 | 1010.3 | |
| 20260506083218 | 41 | 0.0 | 0.0 | 0.00 | 0.00 | 0.00 | 65 | 1010.1 | |
| 20260506082217 | 41 | 0.0 | 0.0 | 0.00 | 0.00 | 0.00 | 65 | 1010.2 | |
| 20260506081237 | 42 | 0.0 | 0.0 | 0.00 | 0.00 | 0.00 | 64 | 1010.1 | |
| 20260506080217 | 43 | 0.0 | 0.0 | 0.00 | 0.00 | 0.00 | 60 | 1010.2 | |
| 20260506073216 | 44 | 23 | 1.0 | 3.0 | 0.00 | 0.00 | 0.00 | 55 | 1010.2 |
| 20260506072217 | 45 | 68 | 1.0 | 2.0 | 0.00 | 0.00 | 0.00 | 54 | 1009.9 |
| 20260506071217 | 45 | 45 | 1.0 | 3.0 | 0.00 | 0.00 | 0.00 | 53 | 1009.8 |
| 20260506070217 | 45 | 23 | 1.0 | 1.0 | 0.00 | 0.00 | 0.00 | 52 | 1009.8 |
| 20260506062216 | 47 | 0 | 2.0 | 2.0 | 0.00 | 0.00 | 0.00 | 49 | 1010.1 |
| 20260506061217 | 47 | 0 | 2.0 | 4.0 | 0.00 | 0.00 | 0.00 | 49 | 1010.0 |
| 20260506060217 | 47 | 23 | 2.0 | 2.0 | 0.00 | 0.00 | 0.00 | 49 | 1009.9 |
| 20260506051216 | 49 | 315 | 2.0 | 2.0 | 0.00 | 0.00 | 0.00 | 48 | 1009.5 |
| 20260506050216 | 50 | 0 | 1.0 | 2.0 | 0.00 | 0.00 | 0.00 | 47 | 1009.5 |
| 20260506044258 | 50 | 315 | 2.0 | 4.0 | 0.00 | 0.00 | 0.00 | 45 | 1009.3 |
| 20260506043217 | 51 | 338 | 3.0 | 4.0 | 0.00 | 0.00 | 0.00 | 45 | 1009.5 |
| 20260506042238 | 51 | 293 | 2.0 | 5.0 | 0.00 | 0.00 | 0.00 | 44 | 1009.5 |
| 20260506041238 | 51 | 338 | 1.0 | 2.0 | 0.00 | 0.00 | 0.00 | 43 | 1009.5 |
| 20260506040217 | 51 | 0 | 2.0 | 4.0 | 0.00 | 0.00 | 0.00 | 44 | 1009.5 |
| 20260506035217 | 51 | 23 | 3.0 | 5.0 | 0.00 | 0.00 | 0.00 | 43 | 1009.1 |
| 20260506034217 | 51 | 315 | 3.0 | 7.0 | 0.00 | 0.00 | 0.00 | 43 | 1009.2 |
| 20260506033217 | 51 | 0 | 2.0 | 8.0 | 0.00 | 0.00 | 0.00 | 43 | 1009.1 |
| 20260506032217 | 51 | 315 | 5.0 | 8.0 | 0.00 | 0.00 | 0.00 | 44 | 1008.8 |
| 20260506031217 | 51 | 338 | 3.0 | 7.0 | 0.00 | 0.00 | 0.00 | 48 | 1008.7 |
| 20260506030217 | 51 | 293 | 1.0 | 2.0 | 0.00 | 0.00 | 0.00 | 46 | 1008.7 |
| 20260506025217 | 51 | 0.0 | 1.0 | 0.00 | 0.00 | 0.00 | 45 | 1008.5 | |
| 20260506024217 | 52 | 270 | 1.0 | 1.0 | 0.00 | 0.00 | 0.00 | 45 | 1008.7 |
| 20260506023217 | 52 | 270 | 1.0 | 2.0 | 0.00 | 0.00 | 0.00 | 44 | 1008.7 |
| 20260506022217 | 52 | 315 | 1.0 | 1.0 | 0.00 | 0.00 | 0.00 | 43 | 1008.3 |
| 20260506021217 | 52 | 293 | 2.0 | 2.0 | 0.00 | 0.00 | 0.00 | 42 | 1008.3 |
| 20260506020217 | 52 | 293 | 2.0 | 3.0 | 0.00 | 0.00 | 0.00 | 42 | 1008.1 |
| 20260506015217 | 53 | 315 | 2.0 | 3.0 | 0.00 | 0.00 | 0.00 | 41 | 1007.9 |
| 20260506014217 | 53 | 293 | 1.0 | 1.0 | 0.00 | 0.00 | 0.00 | 41 | 1007.9 |
| 20260506013217 | 53 | 270 | 2.0 | 2.0 | 0.00 | 0.00 | 0.00 | 40 | 1007.6 |
| 20260506012217 | 53 | 315 | 1.0 | 2.0 | 0.00 | 0.00 | 0.00 | 39 | 1007.5 |
| 20260506011217 | 54 | 293 | 3.0 | 5.0 | 0.00 | 0.00 | 0.00 | 39 | 1007.5 |
| 20260506010217 | 54 | 315 | 5.0 | 8.0 | 0.00 | 0.00 | 0.00 | 38 | 1007.3 |
| 20260506005217 | 54 | 270 | 4.0 | 11.0 | 0.00 | 0.00 | 0.00 | 38 | 1007.1 |
| 20260506004217 | 54 | 270 | 2.0 | 5.0 | 0.00 | 0.00 | 0.00 | 38 | 1007.2 |
| 20260506003217 | 54 | 293 | 5.0 | 11.0 | 0.00 | 0.00 | 0.00 | 38 | 1006.9 |
| 20260506002217 | 54 | 293 | 1.0 | 2.0 | 0.00 | 0.00 | 0.00 | 38 | 1006.9 |
| 20260506001217 | 55 | 293 | 3.0 | 4.0 | 0.00 | 0.00 | 0.00 | 37 | 1007.0 |
| 20260506000219 | 55 | 270 | 2.0 | 4.0 | 0.00 | 0.00 | 0.00 | 38 | 1007.1 |
| 20260505235217 | 55 | 293 | 1.0 | 2.0 | 0.00 | 0.10 | 0.00 | 37 | 1006.9 |
| 20260505234217 | 55 | 338 | 4.0 | 8.0 | 0.00 | 0.10 | 0.00 | 36 | 1007.0 |
| 20260505233216 | 55 | 293 | 7.0 | 9.0 | 0.00 | 0.10 | 0.00 | 36 | 1007.0 |
| 20260505232217 | 55 | 315 | 7.0 | 13.0 | 0.00 | 0.10 | 0.00 | 35 | 1007.1 |
| 20260505231216 | 55 | 0 | 3.0 | 10.0 | 0.00 | 0.10 | 0.00 | 36 | 1007.0 |
| 20260505230216 | 56 | 293 | 5.0 | 7.0 | 0.00 | 0.10 | 0.00 | 36 | 1007.0 |
| 20260505225217 | 56 | 270 | 5.0 | 11.0 | 0.00 | 0.19 | 0.00 | 35 | 1007.1 |
| 20260505224237 | 56 | 270 | 7.0 | 10.0 | 0.00 | 0.19 | 0.00 | 34 | 1007.4 |
| 20260505223216 | 56 | 248 | 7.0 | 9.0 | 0.00 | 0.19 | 0.00 | 34 | 1007.4 |
| 20260505222257 | 56 | 270 | 7.0 | 12.0 | 0.00 | 0.19 | 0.00 | 34 | 1007.3 |
| 20260505221217 | 55 | 270 | 4.0 | 7.0 | 0.00 | 0.19 | 0.00 | 35 | 1007.2 |
| 20260505220217 | 56 | 293 | 6.0 | 9.0 | 0.00 | 0.19 | 0.00 | 33 | 1007.3 |
| 20260505215237 | 56 | 248 | 7.0 | 10.0 | 0.00 | 0.19 | 0.00 | 33 | 1007.6 |
| 20260505214217 | 56 | 315 | 5.0 | 10.0 | 0.00 | 0.19 | 0.00 | 33 | 1007.5 |
| 20260505213217 | 56 | 248 | 4.0 | 6.0 | 0.00 | 0.19 | 0.00 | 34 | 1007.4 |
| 20260505212216 | 56 | 270 | 8.0 | 11.0 | 0.00 | 0.19 | 0.00 | 33 | 1007.4 |
| 20260505211237 | 56 | 315 | 3.0 | 5.0 | 0.00 | 0.19 | 0.00 | 34 | 1007.4 |
| 20260505210216 | 56 | 248 | 8.0 | 10.0 | 0.00 | 0.19 | 0.00 | 33 | 1007.4 |
| 20260505205216 | 56 | 270 | 7.0 | 13.0 | 0.00 | 0.19 | 0.00 | 34 | 1007.4 |
| 20260505204216 | 56 | 293 | 8.0 | 12.0 | 0.00 | 0.19 | 0.00 | 33 | 1007.5 |
| 20260505203216 | 56 | 293 | 8.0 | 12.0 | 0.00 | 0.19 | 0.00 | 32 | 1007.8 |
| 20260505202216 | 56 | 270 | 8.0 | 12.0 | 0.00 | 0.19 | 0.00 | 32 | 1007.8 |
| 20260505201337 | 56 | 270 | 9.0 | 12.0 | 0.00 | 0.19 | 0.00 | 31 | 1007.8 |
| 20260505200257 | 56 | 315 | 6.0 | 9.0 | 0.00 | 0.19 | 0.00 | 31 | 1007.8 |
| 20260505195216 | 56 | 270 | 6.0 | 8.0 | 0.00 | 0.19 | 0.00 | 31 | 1007.7 |
| 20260505194216 | 56 | 293 | 6.0 | 9.0 | 0.00 | 0.19 | 0.00 | 32 | 1007.7 |
| 20260505193317 | 56 | 270 | 7.0 | 10.0 | 0.00 | 0.19 | 0.00 | 32 | 1007.7 |
| 20260505192216 | 56 | 270 | 7.0 | 11.0 | 0.00 | 0.19 | 0.00 | 33 | 1007.8 |
| 20260505191216 | 56 | 270 | 6.0 | 9.0 | 0.00 | 0.19 | 0.00 | 33 | 1008.2 |
| 20260505190216 | 56 | 248 | 6.0 | 10.0 | 0.00 | 0.19 | 0.00 | 31 | 1008.0 |
| 20260505185216 | 56 | 270 | 9.0 | 13.0 | 0.00 | 0.19 | 0.00 | 33 | 1007.9 |
| 20260505184216 | 56 | 248 | 6.0 | 9.0 | 0.00 | 0.19 | 0.00 | 31 | 1008.1 |
| 20260505183237 | 56 | 270 | 9.0 | 12.0 | 0.00 | 0.19 | 0.00 | 31 | 1008.1 |
| 20260505182216 | 57 | 248 | 7.0 | 11.0 | 0.00 | 0.19 | 0.00 | 32 | 1007.9 |
| 20260505181216 | 57 | 315 | 4.0 | 7.0 | 0.00 | 0.19 | 0.00 | 33 | 1007.9 |
| 20260505180216 | 57 | 293 | 3.0 | 6.0 | 0.00 | 0.19 | 0.00 | 36 | 1007.9 |
| 20260505175216 | 57 | 293 | 4.0 | 7.0 | 0.00 | 0.19 | 0.00 | 35 | 1007.8 |
| 20260505174216 | 57 | 248 | 8.0 | 11.0 | 0.00 | 0.19 | 0.00 | 36 | 1007.8 |
| 20260505173216 | 57 | 270 | 9.0 | 12.0 | 0.00 | 0.19 | 0.00 | 35 | 1007.6 |
| 20260505172216 | 56 | 270 | 12.0 | 16.0 | 0.00 | 0.19 | 0.00 | 37 | 1007.6 |
| 20260505171216 | 56 | 293 | 11.0 | 14.0 | 0.00 | 0.19 | 0.00 | 36 | 1007.6 |
| 20260505170216 | 56 | 45 | 3.0 | 8.0 | 0.00 | 0.19 | 0.00 | 37 | 1007.5 |
| 20260505165216 | 56 | 293 | 5.0 | 9.0 | 0.00 | 0.19 | 0.00 | 36 | 1007.4 |
| 20260505164236 | 56 | 248 | 4.0 | 7.0 | 0.00 | 0.19 | 0.00 | 36 | 1007.7 |
| 20260505163216 | 56 | 315 | 7.0 | 11.0 | 0.00 | 0.19 | 0.00 | 37 | 1007.8 |
| 20260505162216 | 55 | 293 | 8.0 | 9.0 | 0.00 | 0.19 | 0.00 | 37 | 1007.6 |
| 20260505161236 | 55 | 315 | 4.0 | 7.0 | 0.00 | 0.19 | 0.00 | 39 | 1007.4 |
| 20260505160216 | 55 | 270 | 5.0 | 9.0 | 0.00 | 0.19 | 0.00 | 40 | 1007.2 |
| 20260505153216 | 54 | 293 | 7.0 | 10.0 | 0.00 | 0.19 | 0.00 | 43 | 1007.2 |
| 20260505152216 | 53 | 315 | 6.0 | 8.0 | 0.00 | 0.19 | 0.00 | 44 | 1007.1 |
| 20260505151216 | 53 | 293 | 5.0 | 9.0 | 0.00 | 0.19 | 0.00 | 41 | 1007.3 |
| 20260505150216 | 52 | 293 | 6.0 | 11.0 | 0.00 | 0.19 | 0.00 | 43 | 1007.3 |